Location: L�Ave Maria
(50.7161°N, 1.5911°E)
Time: 23:40:44
(UTC+00:00)

Cosmos 1408 Rocket - Pass Details

Date: 10 July 2020
Orbit: 602 x 630 km, 82.6° (Epoch: 03 August)

Event Time Altitude Azimuth Distance (km) Brightness Sun altitude
Exits shadow 23:19:40 29° 197° (SSW) 1,148 4.4 -16.7°
Maximum altitude 23:21:54 79° 280° (W) 640 3.6 -16.7°
Drops below altitude 10° 23:26:22 10° 8° (N) 2,011 7.4 -16.9°
Sets 23:28:38 0° 10° (N) 2,926 8.5 -16.9°
